{"data":{"norad_id":42960,"epoch":"2026-05-25T02:55:50.685888Z","epoch_age_seconds":58490,"freshness":"FRESH","line1":"1 42960U 17061F   26145.12211442  .00000031  00000+0  39616-5 0  9994","line2":"2 42960  86.3990  34.9117 0002285  78.4597 281.6855 14.34217892451512","mean_motion":14.34217892,"eccentricity":0.0002285,"inclination_deg":86.399,"raan_deg":34.9117,"arg_perigee_deg":78.4597,"mean_anomaly_deg":281.6855,"bstar":3.9616e-6,"rev_number":45151,"period_min":100.40315408365,"perigee_km":776.03158088772,"apogee_km":779.30178317041,"semimajor_km":7155.8036820291,"source":"CELESTRAK","updated_at":"2026-05-25T13:38:14.803326Z"}}